Regional Weather Roundup
Issued by NWS

Home | Current Version | Previous Version | Graphics & Text | Print | Product List | Glossary On
Versions: 1 2 3 4 5 6 7 8 9 10 11 12 13 14 15 16 17 18 19 20 21 22 23 24 25 26 27 28 29 30 31 32 33 34 35 36 37 38 39 40 41 42 43 44 45 46 47 48 49 50
000
ASUS43 KTOP 190959
RWRKS

WEATHER ROUNDUP FOR KANSAS
NATIONAL WEATHER SERVICE GOODLAND KS
400 AM CST THU JAN 19 2017

NOTE:  "FAIR" INDICATES FEW OR NO CLOUDS BELOW 12,000 FEET WITH NO
SIGNIFICANT WEATHER AND/OR OBSTRUCTIONS TO VISIBILITY.

KSZ001>006-013>018-027>032-041>047-191100-
NORTHWEST KANSAS

CITY           SKY/WX    TMP DP  RH WIND       PRES   REMARKS
GOODLAND       PTCLDY    26  24  92 W5        29.64F
HAYS           CLOUDY    44  43  96 SE7       29.72
HILL CITY      CLOUDY    43  43 100 S7        29.70F FOG
RUSSELL        CLOUDY    45  43  93 S15       29.71F
$$

KSZ061>065-074>080-084>089-191100-
SOUTHWEST KANSAS

CITY           SKY/WX    TMP DP  RH WIND       PRES   REMARKS
DODGE CITY     CLOUDY    44  42  93 S16       29.69F
ELKHART          N/A     29  21  72 W7          N/A
GARDEN CITY    CLOUDY    41  40  96 SE12      29.65F FOG
GREAT BEND     CLOUDY    45  43  93 S14       29.73F
LIBERAL        CLEAR     34  28  80 SE9       29.63F
$$

KSZ066>073-081>083-090>101-191100-
SOUTHEAST KANSAS

CITY           SKY/WX    TMP DP  RH WIND       PRES   REMARKS
CHANUTE        FOG       46  45  96 SE7       29.86F VSB 1/4
COFFEYVILLE    CLOUDY    46  45  96 S5        29.88F FOG
HUTCHINSON     CLOUDY    44  43  96 S12       29.78F FOG
MEDICINE LODGE   N/A     44  43  96 SE9       29.76F
NEWTON         CLOUDY    41  40  96 S12       29.80F FOG
PARSONS        CLOUDY    46  45  96 S5        29.88F FOG
WICHITA INTL   CLOUDY    44  43  96 S18       29.80F FOG
WICHITA JABRA  CLOUDY    43  43 100 S13G20    29.80F FOG
WINFIELD       CLOUDY    46  44  93 S10       29.83F
$$

KSZ007>012-019>026-033>040-048>060-102>105-191100-
NORTHEAST KANSAS

CITY           SKY/WX    TMP DP  RH WIND       PRES   REMARKS
CONCORDIA      CLOUDY    41  40  96 SE10      29.77F
EMPORIA        CLOUDY    44  43  96 S10       29.83F
LAWRENCE       CLOUDY    42  42 100 E8        29.86F FOG
MANHATTAN      CLOUDY    45  39  79 CALM      29.81F
OLATHE IND     CLOUDY    42  42 100 SE6       29.87F FOG
OLATHE EXE     FOG       41  41 100 SE6       29.87F VSB 3/4
SALINA           N/A    N/A N/A N/A MISG        N/A
TOPEKA BILLARD CLOUDY    42  38  85 E5        29.85F
TOPEKA FORBES  CLOUDY    45  43  93 SE7       29.84F FOG
$$




USA.gov is the U.S. government's official web portal to all federal, state and local government web resources and services.